小惑星A/2023 R3

A/2023 R3

English version
Home page
Updated on December 19, 2023

---------------------------------------------------------------------

・ プロフィール

発見日 2023年9月15日
発見光度 22.36等
発見者 Pan-STARRS 2 telescope (Haleakala)

・ 軌道要素

Epoch 2023 Sept. 13.0 TT = JDT 2460200.5
T 2023 Dec. 18.18663 TT                                 Rudenko
q   1.3575144            (2000.0)            P               Q
z  +0.0014524      Peri.   86.89151     +0.26661962     -0.96271147
 +/-0.0006595      Node   347.35703     +0.78003897     +0.24347115
e   0.9980284      Incl.   12.08719     +0.56608585     +0.11793403
H   20.0
>From 19 observations 2023 Sept. 15-Oct. 10, mean residual 0".5.

・ 光度変化

        H = 20.0  G = 0.15

---------------------------------------------------------------------

軌道要素はM.P.E.C. 2023-U276に掲載されたものです。
光度グラフはComet for Windowsで作成したものです。

---------------------------------------------------------------------

Copyright(C) Seiichi Yoshida (comet@aerith.net). All rights reserved.